This is the latest recevied weather packets stored in our database for station/object EA5FOG-11. If no packets are shown the sender has not sent any weather packets the latest 10 day(s).
| Time | Temp. | Humidity | Pressure | Rain* | Wind** | Luminosity | Snow |
|---|---|---|---|---|---|---|---|
| 1777988515 | 35° C | 26% | 951.9 hPa | - | - | - | - |
| 1777986734 | 32.22° C | 28% | 952.3 hPa | - | - | - | - |
| 1777985832 | 30.56° C | 29% | 952.6 hPa | - | - | - | - |
| 1777984931 | 30° C | 29% | 952.9 hPa | - | - | - | - |
| 1777984030 | 31.67° C | 28% | 952.9 hPa | - | - | - | - |
| 1777983130 | 30° C | 29% | 953 hPa | - | - | - | - |
| 1777982229 | 31.67° C | 29% | 953.1 hPa | - | - | - | - |
| 1777981328 | 31.11° C | 29% | 953.5 hPa | - | - | - | - |
| 1777980427 | 30.56° C | 30% | 953.6 hPa | - | - | - | - |
| 1777979527 | 30° C | 30% | 953.8 hPa | - | - | - | - |
| 1777978626 | 29.44° C | 31% | 954 hPa | - | - | - | - |
| 1777977725 | 32.22° C | 30% | 954.2 hPa | - | - | - | - |
| 1777976824 | 33.89° C | 30% | 954.3 hPa | - | - | - | - |
| 1777975923 | 31.67° C | 31% | 954.5 hPa | - | - | - | - |
| 1777975023 | 31.11° C | 32% | 954.6 hPa | - | - | - | - |
| 1777974122 | 31.67° C | 32% | 954.5 hPa | - | - | - | - |
| 1777973221 | 30° C | 34% | 954.6 hPa | - | - | - | - |
| 1777972320 | 29.44° C | 35% | 954.6 hPa | - | - | - | - |
| 1777971419 | 28.33° C | 36% | 954.8 hPa | - | - | - | - |
| 1777970518 | 28.33° C | 37% | 954.8 hPa | - | - | - | - |
| 1777969617 | 27.22° C | 38% | 954.9 hPa | - | - | - | - |
| 1777968716 | 26.11° C | 39% | 954.9 hPa | - | - | - | - |
| 1777967815 | 25.56° C | 40% | 955.1 hPa | - | - | - | - |
| 1777966914 | 23.89° C | 41% | 955.3 hPa | - | - | - | - |
| 1777965131 | 23.89° C | 42% | 955.2 hPa | - | - | - | - |
* Rain since midnight (hover to see other rain measurements)
** Current wind speed in m/s (hover to see current wind gust speed)